N6OIL Weather Reports


Display with metric or nautical units.
time (UTC)temp
F
wind
direction
speed
MPH
gust
MPH
rain 1hr
in
rain 24hr
in
rain mn
in
humidity
%
barometer
mb
20260502130704 57 336 5.0 8.0 0.00 0.00 0.00 35 1014.9
20260502130205 57 334 5.0 6.0 0.00 0.00 0.00 36 1015.0
20260502123704 56 331 5.0 8.0 0.00 0.00 0.00 38 1014.9
20260502123204 56 331 5.0 8.0 0.00 0.00 0.00 38 1014.9
20260502122205 56 331 5.0 8.0 0.00 0.00 0.00 38 1014.9
20260502121704 56 331 6.0 9.0 0.00 0.00 0.00 38 1014.9
20260502121205 57 331 6.0 9.0 0.00 0.00 0.00 38 1014.9
20260502120704 57 331 7.0 9.0 0.00 0.00 0.00 38 1014.9
20260502120205 57 331 7.0 9.0 0.00 0.00 0.00 38 1014.9
20260502115704 57 333 6.0 8.0 0.00 0.00 0.00 38 1014.9
20260502115204 58 337 5.0 9.0 0.00 0.00 0.00 38 1014.9
20260502114704 58 338 6.0 9.0 0.00 0.00 0.00 37 1014.9
20260502114204 59 338 6.0 9.0 0.00 0.00 0.00 37 1014.9
20260502113704 59 338 6.0 9.0 0.00 0.00 0.00 37 1014.9
20260502113205 58 339 6.0 9.0 0.00 0.00 0.00 38 1014.7
20260502112704 58 336 7.0 9.0 0.00 0.00 0.00 39 1014.7
20260502112204 59 333 6.0 9.0 0.00 0.00 0.00 40 1014.9
20260502111704 59 331 6.0 9.0 0.00 0.00 0.00 40 1014.9
20260502111204 59 329 5.0 9.0 0.00 0.00 0.00 41 1014.9
20260502110704 59 327 6.0 9.0 0.00 0.00 0.00 41 1015.0
20260502110204 58 327 5.0 8.0 0.00 0.00 0.00 41 1014.9
20260502105704 58 329 5.0 8.0 0.00 0.00 0.00 42 1014.9
20260502105204 58 329 6.0 9.0 0.00 0.00 0.00 42 1014.9
20260502104205 58 330 7.0 9.0 0.00 0.00 0.00 43 1014.9
20260502103704 58 329 7.0 9.0 0.00 0.00 0.00 44 1014.9
20260502103204 57 329 6.0 8.0 0.00 0.00 0.00 46 1014.7
20260502102705 56 318 5.0 8.0 0.00 0.00 0.00 47 1014.9
20260502102204 57 321 4.0 8.0 0.00 0.00 0.00 47 1014.9
20260502100204 58 332 7.0 9.0 0.00 0.00 0.00 46 1014.7
20260502091204 58 334 5.0 8.0 0.00 0.00 0.00 48 1015.0
20260502090704 58 334 5.0 6.0 0.00 0.00 0.00 49 1015.1
20260502090204 58 334 5.0 8.0 0.00 0.00 0.00 48 1015.1
20260502071206 60 324 5.0 8.0 0.00 0.00 0.00 58 1015.6
20260502070704 60 323 5.0 6.0 0.00 0.00 0.00 59 1015.6
20260502070204 61 319 4.0 6.0 0.00 0.00 0.00 58 1015.6
20260502065704 61 313 4.0 6.0 0.00 0.00 0.00 57 1015.6
20260502065206 61 313 3.0 6.0 0.00 0.00 0.00 56 1015.7
20260502064705 62 313 2.0 3.0 0.00 0.00 0.00 55 1015.6
20260502064204 62 313 1.0 3.0 0.00 0.00 0.00 55 1015.6
20260502063704 62 313 1.0 3.0 0.00 0.00 0.00 55 1015.6
20260502063206 62 313 1.0 4.0 0.00 0.00 0.00 54 1015.5
20260502062704 62 313 2.0 6.0 0.00 0.00 0.00 53 1015.6
20260502062204 63 313 3.0 6.0 0.00 0.00 0.00 52 1015.7
20260502061705 63 313 3.0 5.0 0.00 0.00 0.00 52 1015.7
20260502061206 62 346 2.0 5.0 0.00 0.00 0.00 53 1015.7
20260502060704 61 353 2.0 4.0 0.00 0.00 0.00 53 1015.7
20260502060204 61 353 2.0 4.0 0.00 0.00 0.00 52 1015.6
20260502055704 62 353 1.0 3.0 0.00 0.00 0.00 52 1015.5
20260502055205 62 353 1.0 2.0 0.00 0.00 0.00 51 1015.4
20260502054704 62 353 1.0 2.0 0.00 0.00 0.00 51 1015.4
20260502054204 63 353 1.0 2.0 0.00 0.00 0.00 49 1015.4
20260502053704 64 353 0.0 2.0 0.00 0.00 0.00 46 1015.3
20260502053204 64 353 0.0 2.0 0.00 0.00 0.00 45 1015.2
20260502052704 65 353 0.0 2.0 0.00 0.00 0.00 45 1015.2
20260502052204 65 353 1.0 3.0 0.00 0.00 0.00 44 1015.1
20260502051704 65 353 1.0 4.0 0.00 0.00 0.00 42 1015.1
20260502050704 66 353 3.0 6.0 0.00 0.00 0.00 40 1015.1
20260502050204 66 353 3.0 6.0 0.00 0.00 0.00 44 1015.0
20260502045704 65 353 3.0 12.0 0.00 0.00 0.00 46 1014.9
20260502045204 65 94 4.0 12.0 0.00 0.00 0.00 45 1015.0
20260502044705 65 95 7.0 12.0 0.00 0.00 0.00 46 1014.9
20260502043704 65 324 8.0 12.0 0.00 0.00 0.00 50 1014.6
20260502043205 65 317 8.0 12.0 0.00 0.00 0.00 50 1014.4
20260502042704 65 321 8.0 10.0 0.00 0.00 0.00 51 1014.4
20260502042204 65 313 7.0 9.0 0.00 0.00 0.00 52 1014.4
20260502041704 65 315 6.0 9.0 0.00 0.00 0.00 52 1014.3
20260502041206 65 304 5.0 9.0 0.00 0.00 0.00 51 1014.3
20260502040705 65 312 5.0 6.0 0.00 0.00 0.00 50 1014.2
20260502040204 65 320 5.0 6.0 0.00 0.00 0.00 48 1014.1
20260502035704 66 322 4.0 6.0 0.00 0.00 0.00 46 1014.0
20260502035206 66 327 4.0 9.0 0.00 0.00 0.00 45 1013.9
20260502034704 67 326 5.0 9.0 0.00 0.00 0.00 46 1013.9
20260502034204 67 326 6.0 9.0 0.00 0.00 0.00 44 1013.9
20260502033704 67 334 6.0 9.0 0.00 0.00 0.00 45 1013.8
20260502033205 67 331 6.0 9.0 0.00 0.00 0.00 46 1013.6
20260502032704 67 327 5.0 8.0 0.00 0.00 0.00 47 1013.6
20260502032205 67 317 4.0 8.0 0.00 0.00 0.00 48 1013.5
20260502031205 68 311 5.0 9.0 0.00 0.00 0.00 48 1013.5
20260502030704 68 307 5.0 9.0 0.00 0.00 0.00 47 1013.4
20260502025704 69 317 6.0 10.0 0.00 0.00 0.00 47 1013.3
20260502025206 69 329 6.0 10.0 0.00 0.00 0.00 47 1013.3
20260502024704 70 295 4.0 8.0 0.00 0.00 0.00 45 1013.2
20260502024205 70 309 3.0 10.0 0.00 0.00 0.00 45 1013.3
20260502023704 70 309 5.0 11.0 0.00 0.00 0.00 44 1013.3
20260502022704 71 301 6.0 12.0 0.00 0.00 0.00 43 1013.1
20260502022204 71 309 6.0 13.0 0.00 0.00 0.00 42 1013.1
20260502021704 71 307 8.0 13.0 0.00 0.00 0.00 42 1013.0
20260502021204 72 311 9.0 15.0 0.00 0.00 0.00 42 1013.0
20260502020704 72 325 10.0 15.0 0.00 0.00 0.00 42 1013.0
20260502015704 73 321 11.0 15.0 0.00 0.00 0.00 40 1012.9
20260502015204 74 288 11.0 15.0 0.00 0.00 0.00 39 1012.8
20260502013704 77 298 6.0 10.0 0.00 0.00 0.00 32 1012.6
20260502012704 78 308 5.0 10.0 0.00 0.00 0.00 26 1012.6
20260502012204 79 303 3.0 6.0 0.00 0.00 0.00 26 1012.6
20260502011704 80 358 2.0 6.0 0.00 0.00 0.00 26 1012.6
20260502011204 80 358 2.0 8.0 0.00 0.00 0.00 15 1012.6
20260502010704 81 150 2.0 10.0 0.00 0.00 0.00 15 1012.5
20260502010205 81 149 4.0 10.0 0.00 0.00 0.00 15 1012.5
20260502005704 80 142 5.0 10.0 0.00 0.00 0.00 15 1012.5
20260502005204 80 236 5.0 10.0 0.00 0.00 0.00 14 1012.5
20260502004205 80 269 3.0 10.0 0.00 0.00 0.00 14 1012.5
20260502003704 81 225 3.0 8.0 0.00 0.00 0.00 14 1012.5
20260502003204 81 213 3.0 11.0 0.00 0.00 0.00 15 1012.5
20260502002704 81 249 4.0 11.0 0.00 0.00 0.00 14 1012.5
20260502002204 81 230 4.0 11.0 0.00 0.00 0.00 14 1012.5
20260502001704 81 168 3.0 9.0 0.00 0.00 0.00 14 1012.5
20260502001204 81 210 3.0 9.0 0.00 0.00 0.00 15 1012.5
20260502000704 81 290 4.0 12.0 0.00 0.00 0.00 15 1012.6
20260502000204 80 313 5.0 12.0 0.00 0.00 0.00 14 1012.6
20260501235703 80 252 6.0 13.0 0.00 0.00 0.00 14 1012.6
20260501235204 81 269 5.0 15.0 0.00 0.00 0.00 14 1012.6
20260501234704 81 263 6.0 15.0 0.00 0.00 0.00 14 1012.6
20260501234204 81 225 4.0 8.0 0.00 0.00 0.00 14 1012.6
20260501233704 81 203 3.0 15.0 0.00 0.00 0.00 15 1012.8
20260501233204 80 255 5.0 15.0 0.00 0.00 0.00 15 1012.6
20260501232704 80 298 6.0 15.0 0.00 0.00 0.00 15 1012.8
20260501232204 81 257 4.0 8.0 0.00 0.00 0.00 14 1012.8
20260501231704 81 57 4.0 13.0 0.00 0.00 0.00 15 1012.8
20260501230705 81 225 5.0 15.0 0.00 0.00 0.00 14 1013.0
20260501230205 80 245 5.0 15.0 0.00 0.00 0.00 14 1013.0
20260501225704 80 286 6.0 15.0 0.00 0.00 0.00 15 1013.0
20260501225204 80 232 8.0 15.0 0.00 0.00 0.00 14 1013.1
20260501224205 81 223 5.0 14.0 0.00 0.00 0.00 15 1013.1
20260501223704 81 141 4.0 12.0 0.00 0.00 0.00 15 1013.3
20260501223204 81 287 3.0 10.0 0.00 0.00 0.00 15 1013.4
20260501222705 81 221 3.0 10.0 0.00 0.00 0.00 16 1013.4
20260501222204 81 240 3.0 10.0 0.00 0.00 0.00 15 1013.5
20260501221704 82 163 3.0 9.0 0.00 0.00 0.00 16 1013.5
20260501221204 82 59 3.0 10.0 0.00 0.00 0.00 15 1013.6
20260501220704 82 180 3.0 10.0 0.00 0.00 0.00 15 1013.8
20260501220204 82 156 4.0 13.0 0.00 0.00 0.00 16 1013.8
20260501215704 82 161 4.0 13.0 0.00 0.00 0.00 15 1013.9
20260501213704 82 34 4.0 14.0 0.00 0.00 0.00 16 1014.1
20260501212704 83 184 4.0 17.0 0.00 0.00 0.00 16 1014.1
20260501212204 82 167 5.0 17.0 0.00 0.00 0.00 15 1014.1
20260501211704 82 217 7.0 17.0 0.00 0.00 0.00 17 1014.2
20260501211204 82 138 6.0 14.0 0.00 0.00 0.00 15 1014.2
20260501210704 83 165 4.0 10.0 0.00 0.00 0.00 15 1014.3
20260501210204 83 184 3.0 9.0 0.00 0.00 0.00 16 1014.4
20260501205704 82 179 3.0 9.0 0.00 0.00 0.00 17 1014.4
20260501205206 81 215 4.0 9.0 0.00 0.00 0.00 17 1014.4
20260501204704 81 259 3.0 9.0 0.00 0.00 0.00 16 1014.4
20260501204204 81 290 2.0 12.0 0.00 0.00 0.00 16 1014.4
20260501203704 82 358 4.0 12.0 0.00 0.00 0.00 17 1014.5
20260501203206 81 176 6.0 12.0 0.00 0.00 0.00 17 1014.5
20260501202704 82 163 5.0 12.0 0.00 0.00 0.00 16 1014.5
20260501202204 82 156 4.0 12.0 0.00 0.00 0.00 17 1014.5
20260501201704 82 218 3.0 8.0 0.00 0.00 0.00 18 1014.5
20260501201206 82 245 2.0 8.0 0.00 0.00 0.00 17 1014.5
20260501200704 82 178 2.0 7.0 0.00 0.00 0.00 18 1014.6
20260501200204 81 331 3.0 14.0 0.00 0.00 0.00 18 1014.7
20260501195704 80 67 6.0 14.0 0.00 0.00 0.00 18 1014.7
20260501194703 80 73 3.0 10.0 0.00 0.00 0.00 19 1014.9
20260501194204 80 149 3.0 11.0 0.00 0.00 0.00 18 1015.0
20260501193704 80 149 4.0 11.0 0.00 0.00 0.00 19 1015.1
20260501193205 79 109 4.0 11.0 0.00 0.00 0.00 18 1015.1
20260501192704 78 250 4.0 9.0 0.00 0.00 0.00 18 1015.2
20260501192205 79 293 4.0 10.0 0.00 0.00 0.00 18 1015.2
20260501191206 80 141 4.0 10.0 0.00 0.00 0.00 19 1015.4
20260501190705 79 84 3.0 8.0 0.00 0.00 0.00 19 1015.4
20260501190205 79 157 3.0 9.0 0.00 0.00 0.00 20 1015.5
20260501185704 79 231 3.0 9.0 0.00 0.00 0.00 20 1015.5
20260501185205 79 146 4.0 9.0 0.00 0.00 0.00 20 1015.7
20260501184705 78 169 3.0 9.0 0.00 0.00 0.00 20 1015.7
20260501184204 78 145 3.0 9.0 0.00 0.00 0.00 20 1015.9
20260501183704 78 141 4.0 9.0 0.00 0.00 0.00 19 1015.9
20260501183206 78 239 4.0 9.0 0.00 0.00 0.00 19 1015.9
20260501182705 78 146 3.0 7.0 0.00 0.00 0.00 20 1016.0
20260501182204 78 220 3.0 7.0 0.00 0.00 0.00 21 1016.0
20260501181705 77 155 2.0 9.0 0.00 0.00 0.00 22 1016.0
20260501181206 77 213 3.0 9.0 0.00 0.00 0.00 22 1016.0
20260501180704 77 142 4.0 9.0 0.00 0.00 0.00 23 1016.0
20260501180204 77 154 3.0 8.0 0.00 0.00 0.00 22 1016.0
20260501175704 77 61 2.0 8.0 0.00 0.00 0.00 22 1016.1
20260501175206 77 72 2.0 8.0 0.00 0.00 0.00 23 1016.2
20260501174704 76 145 3.0 9.0 0.00 0.00 0.00 24 1016.2
20260501174204 76 145 3.0 9.0 0.00 0.00 0.00 23 1016.2
20260501173704 76 145 2.0 8.0 0.00 0.00 0.00 24 1016.2
20260501173206 76 152 2.0 8.0 0.00 0.00 0.00 23 1016.1
20260501172204 75 358 4.0 8.0 0.00 0.00 0.00 24 1016.2
20260501171705 75 138 3.0 8.0 0.00 0.00 0.00 25 1016.1
20260501171204 75 136 2.0 5.0 0.00 0.00 0.00 25 1016.1
20260501170205 74 135 3.0 11.0 0.00 0.00 0.00 26 1016.2
20260501165704 73 132 3.0 9.0 0.00 0.00 0.00 27 1016.2
20260501165204 73 154 4.0 9.0 0.00 0.00 0.00 27 1016.2
20260501164704 73 151 4.0 10.0 0.00 0.00 0.00 27 1016.2
20260501164204 72 146 5.0 11.0 0.00 0.00 0.00 27 1016.2
20260501162204 72 128 6.0 14.0 0.00 0.00 0.00 27 1016.1
20260501161204 71 107 7.0 12.0 0.00 0.00 0.00 28 1016.1
20260501160204 72 88 6.0 11.0 0.00 0.00 0.00 27 1016.0
20260501155204 72 107 5.0 10.0 0.00 0.00 0.00 29 1016.0
20260501154704 71 91 4.0 10.0 0.00 0.00 0.00 28 1016.0
20260501154204 71 76 4.0 8.0 0.00 0.00 0.00 30 1015.9
20260501153704 71 56 4.0 10.0 0.00 0.00 0.00 30 1015.9
20260501153204 70 67 4.0 10.0 0.00 0.00 0.00 31 1015.7
20260501152704 69 76 4.0 10.0 0.00 0.00 0.00 31 1015.7
20260501152204 69 60 4.0 9.0 0.00 0.00 0.00 32 1015.7
20260501151705 69 49 4.0 8.0 0.00 0.00 0.00 33 1015.6
20260501151205 68 52 4.0 7.0 0.00 0.00 0.00 34 1015.6
20260501150704 67 102 4.0 7.0 0.00 0.00 0.00 35 1015.6
20260501150204 67 50 4.0 9.0 0.00 0.00 0.00 36 1015.5
20260501145704 66 67 5.0 9.0 0.00 0.00 0.00 37 1015.6
20260501145204 66 49 4.0 9.0 0.00 0.00 0.00 37 1015.5